DISCOBAYS Weather Reports


time (UTC)temp
C
wind
direction
speed
KPH
gust
KPH
rain 1hr
cm
rain 24hr
cm
rain mn
cm
humidity
%
barometer
mb
20260503224506 23 53 3.2 14.5 0.00 0.00 0.00 44 1013.2
20260503223038 23 5 8.0 16.1 0.00 0.00 0.00 43 1013.5
20260503221514 24 23 8.0 17.7 0.00 0.00 0.00 41 1013.7
20260503220042 24 53 8.0 17.7 0.00 0.00 0.00 43 1013.9
20260503214526 24 30 6.4 17.7 0.00 0.00 0.00 41 1014.1
20260503213101 24 37 4.8 16.1 0.00 0.00 0.00 42 1014.1
20260503211528 24 16 4.8 14.5 0.00 0.00 0.00 45 1014.3
20260503210112 23 12 3.2 17.7 0.00 0.00 0.00 43 1014.3
20260503204553 23 51 6.4 12.9 0.00 0.00 0.00 47 1014.5
20260503203024 23 46 6.4 19.3 0.00 0.00 0.00 46 1014.6
20260503201552 23 34 3.2 16.1 0.00 0.00 0.00 43 1014.7
20260503200020 23 32 3.2 14.5 0.00 0.00 0.00 46 1014.8
20260503194554 23 11 4.8 12.9 0.00 0.00 0.00 47 1015.1
20260503193035 22 44 4.8 14.5 0.00 0.00 0.00 50 1015.3
20260503191504 23 65 0.0 14.5 0.00 0.00 0.00 47 1015.4
20260503190038 22 70 3.2 17.7 0.00 0.00 0.00 52 1015.6
20260503184515 20 19 6.4 19.3 0.00 0.00 0.00 55 1015.7
20260503183052 20 77 4.8 17.7 0.00 0.00 0.00 58 1015.8
20260503181514 20 40 3.2 17.7 0.00 0.00 0.00 57 1016.0
20260503180047 20 30 4.8 14.5 0.00 0.00 0.00 58 1016.1
20260503174538 20 40 0.0 17.7 0.00 0.00 0.00 57 1016.4
20260503173004 20 28 6.4 14.5 0.00 0.00 0.00 56 1016.4
20260503171545 20 21 3.2 16.1 0.00 0.00 0.00 55 1016.4
20260503120103 11 11 0.0 0.0 0.00 0.00 0.00 82 1016.8
20260503081524 13 11 0.0 0.0 0.00 0.00 0.00 72 1016.8
20260503071547 14 11 0.0 0.0 0.00 0.00 0.00 68 1016.6
20260503054555 15 11 0.0 0.0 0.00 0.00 0.00 68 1016.4
20260503053033 16 11 0.0 0.0 0.00 0.00 0.00 66 1016.5
20260503051507 16 11 0.0 0.0 0.00 0.00 0.00 64 1016.5
20260503050046 15 11 0.0 0.0 0.00 0.00 0.00 65 1016.5
20260503044531 15 11 0.0 0.0 0.00 0.00 0.00 65 1016.3
20260503043055 16 11 0.0 0.0 0.00 0.00 0.00 62 1016.3
20260503043007 16 11 0.0 0.0 0.00 0.00 0.00 62 1016.3
20260503041536 16 11 0.0 0.0 0.00 0.00 0.00 63 1016.2
20260503040009 16 11 0.0 0.0 0.00 0.00 0.00 62 1016.0
20260503034559 16 11 0.0 0.0 0.00 0.00 0.00 62 1015.8
20260503033018 16 11 0.0 0.0 0.00 0.00 0.00 61 1015.6
20260503031551 17 11 0.0 0.0 0.00 0.00 0.00 60 1015.6
20260503030024 17 11 0.0 0.0 0.00 0.00 0.00 64 1015.5
20260503024516 17 11 0.0 0.0 0.00 0.00 0.00 65 1015.4
20260503023001 18 11 0.0 0.0 0.00 0.00 0.00 65 1015.4
20260503021546 18 11 0.0 0.0 0.00 0.00 0.00 61 1015.5
20260503020022 19 11 0.0 0.0 0.00 0.00 0.00 58 1015.5
20260503014610 19 11 0.0 0.0 0.00 0.00 0.00 54 1015.6
20260503013023 20 24 0.0 12.9 0.00 0.00 0.00 51 1015.8
20260503011551 20 15 9.7 14.5 0.00 0.00 0.00 51 1015.7
20260503010025 21 26 0.0 14.5 0.00 0.00 0.00 50 1015.8
20260503004603 21 27 0.0 9.7 0.00 0.00 0.00 49 1015.9
20260503004504 21 26 0.0 9.7 0.00 0.00 0.00 49 1015.9
20260503003031 21 17 0.0 8.0 0.00 0.00 0.00 49 1015.9
20260503001507 22 63 1.6 12.9 0.00 0.00 0.00 50 1016.0
20260503000035 22 45 0.0 8.0 0.00 0.00 0.00 50 1016.0
20260502234507 22 22 1.6 12.9 0.00 0.00 0.00 48 1016.1
20260502233043 22 44 0.0 0.0 0.00 0.00 0.00 49 1016.3
20260502231520 22 41 0.0 8.0 0.00 0.00 0.00 49 1016.5
20260502230045 21 26 0.0 9.7 0.00 0.00 0.00 50 1016.7